Regional Weather Roundup
Issued by NWS Grand Forks, ND

Home | Current Version | Previous Version | Graphics & Text | Print | Product List | Glossary On
Versions: 1 2 3 4 5 6 7 8 9 10 11 12 13 14 15 16 17 18 19 20 21 22 23 24 25 26 27 28 29 30 31 32 33 34 35 36 37 38 39 40 41 42 43 44 45 46 47 48 49 50
000
ASUS43 KFGF 101210
RWRFGF
PRAIRIE TO PINES  WEATHER ROUNDUP
NATIONAL WEATHER SERVICE EASTERN NORTH DAKOTA/GRAND FORKS ND
700 AM CDT THU JUL 10 2014

 **SATELLITE DATA USED TO AUGMENT SKY COVER AT AUTOMATED STATIONS**
 *****  WEATHER ACROSS EASTERN NORTH DAKOTA  *****

CITY           SKY/WX    TMP DP  RH WIND       PRES   REMARKS
GRAND FORKS    SUNNY     57  53  86 SE6       29.94S
6HR MIN TEMP:  53; 6HR MAX TEMP:  59;

GRAND FRKS AFB SUNNY     57  55  91 S7        29.94F
GRAND FRKS NWS   N/A     57 N/A N/A SE9         N/A
DEVILS LAKE    CLEAR     63  54  72 S10       29.89S
6HR MIN TEMP:  61; 6HR MAX TEMP:  64;

FARGO          SUNNY     62  52  69 SE9       29.96S
WAHPETON ARPT  FAIR      57  50  77 SE6       29.98S
$$

 ***** WEATHER ACROSS CENTRAL AND WESTERN NORTH DAKOTA  *****

CITY           SKY/WX    TMP DP  RH WIND       PRES   REMARKS
BISMARCK       PTCLDY    60  56  86 S6        29.90S
6HR MIN TEMP:  59; 6HR MAX TEMP:  65;

MINOT          PTCLDY    65  58  78 S16G23    29.83S HAZE
6HR MIN TEMP:  62; 6HR MAX TEMP:  67;

JAMESTOWN      CLEAR     60  55  83 S9        29.94R
6HR MIN TEMP:  58; 6HR MAX TEMP:  62;

MINOT AFB      PTCLDY    65  62  91 S9        29.82S
GARRISON         N/A     63  59  87 S9        29.85S
WILLISTON      CLOUDY    67  55  65 S6        29.80R
6HR MIN TEMP:  66; 6HR MAX TEMP:  71;

DICKINSON      CLOUDY    61  56  83 SE9       29.84S
6HR MIN TEMP:  59; 6HR MAX TEMP:  63;

HETTINGER      CLOUDY    59  55  87 SE8       29.88F
6HR MIN TEMP:  57; 6HR MAX TEMP:  61;

$$

 *****  OTHER AIRPORT OBSERVATIONS IN OUR AREA  *****

CITY           SKY/WX    TMP DP  RH WIND       PRES   REMARKS
WALHALLA         N/A     57  55  94 E7          N/A
GRAFTON AIRPOR FAIR      55  54  94 SE6       29.93S
VALLEY CITY AR FAIR      55  55 100 S8        29.95S
CANDO          FAIR      61  57  88 S7        29.89S
CAVALIER APRT  FAIR      57  52  82 S8        29.92F
GWINNER        SUNNY     61  57  88 S5        29.96F
ROLLA          FAIR      55  55 100 S7        29.90S
 ***** THE ABOVE OBSERVATIONS ARE NON NWS ARE NOT QUALITY
       CONTROLLED AND MAY MIS-REPORT RAIN FOR SNOW...
$$

  *****  WEATHER ACROSS NORTHERN MINNESOTA  *****

CITY           SKY/WX    TMP DP  RH WIND       PRES   REMARKS
FLAG ISLAND    SUNNY     61  55  82 SW6       29.96S
WARROAD          N/A     55  52  88 CALM      29.98S FOG
ROSEAU         SUNNY     54  48  82 S3        29.98R
HALLOCK        SUNNY     57  54  88 SE8       29.94F
THF RVR FALLS  MOSUNNY   57  52  82 SE6       29.98S
6HR MIN TEMP:  54; 6HR MAX TEMP:  57;

BAUDETTE       SUNNY     54  51  90 CALM      30.00S
6HR MIN TEMP:  49; 6HR MAX TEMP:  55;

WASKISH        NOT AVBL
CROOKSTON      SUNNY     57  54  88 SE8       29.97S
$$
  *****  WEATHER ACROSS CENTRAL AND WEST MINNESOTA  *****

CITY           SKY/WX    TMP DP  RH WIND       PRES   REMARKS
FOSSTON        SUNNY     57  52  82 SE6       30.00S
BEMIDJI        SUNNY     49  47  93 CALM      30.02R
PARK RAPIDS    SUNNY     53  51  93 CALM      30.02R
6HR MIN TEMP:  48; 6HR MAX TEMP:  56;

ELBOW LAKE     FAIR      61  52  72 SE7       30.00S
WADENA         SUNNY     52  52 100 CALM      30.01F
DETROIT LAKES  SUNNY     59  55  88 SE5       30.01S
MOORHEAD       SUNNY     61  55  82 SE7       29.98S
FERGUS FALLS   FAIR      61  52  72 SE6       30.00S
MORRIS MN      FAIR      57  55  94 SE5       30.00S
STAPLES        FAIR      52  52 100 CALM      30.02S
$$
  *****  WEATHER ELSEWHERE ACROSS MINNESOTA  *****

CITY           SKY/WX    TMP DP  RH WIND       PRES   REMARKS
DULUTH         MOSUNNY   59  51  75 SE3       30.07R
6HR MIN TEMP:  54; 6HR MAX TEMP:  59;

INTRNTL FALLS  SUNNY     52  50  93 CALM      30.01R
6HR MIN TEMP:  44; 6HR MAX TEMP:  52;

ELY            SUNNY     54  50  87 CALM      30.06S
CLOQUET        MOSUNNY   55  52  88 CALM      30.06S
WHEATON        FAIR      54  52  94 SE9       30.00F
BRAINERD       SUNNY     60  53  77 CALM      30.04R
6HR MIN TEMP:  54; 6HR MAX TEMP:  60;

HIBBING        MOSUNNY   50  47  89 CALM      30.06R
6HR MIN TEMP:  44; 6HR MAX TEMP:  54;

ALEXANDRIA     FAIR      60  51  72 SE6       30.03S
6HR MIN TEMP:  57; 6HR MAX TEMP:  60;

SAINT CLOUD    FOG       57  55  94 CALM      30.04R VSB 1/4
6HR MIN TEMP:  51; 6HR MAX TEMP:  61;

MINNEAPOLIS    FAIR      63  58  83 SE5       30.05R
6HR MIN TEMP:  61; 6HR MAX TEMP:  66;

$$

  *****  WEATHER ACROSS SOUTH DAKOTA  *****

CITY           SKY/WX    TMP DP  RH WIND       PRES   REMARKS
SIOUX FALLS    FAIR      62  58  86 E5        30.00F
6HR MIN TEMP:  56; 6HR MAX TEMP:  66;

BROOKINGS      NOT AVBL
WATERTOWN      FAIR      60  52  74 S8        29.99R
6HR MIN TEMP:  57; 6HR MAX TEMP:  62;

HURON          MOCLDY    60  57  89 SE7       29.96R
6HR MIN TEMP:  57; 6HR MAX TEMP:  66;

SISSETON         N/A     56  55  97 SE5       29.97S
ABERDEEN       CLEAR     57  55  93 SE8       29.95S
6HR MIN TEMP:  52; 6HR MAX TEMP:  58;

MITCHELL       PTCLDY    61  59  93 S9        29.99R
PIERRE         MOCLDY    61  58  90 SE7       29.91S
6HR MIN TEMP:  55; 6HR MAX TEMP:  61;

MOBRIDGE       CLEAR     60  57  89 SE5       29.89F
RAPID CITY     CLOUDY    61  58  90 SE10      29.86F
6HR MIN TEMP:  56; 6HR MAX TEMP:  62; 6HR PCP:  0.02;

$$

  *****  SOME WEATHER IN NEARBY STATES *****

CITY           SKY/WX    TMP DP  RH WIND       PRES   REMARKS
GLASGOW MT     MOCLDY    70  57  63 SE15      29.69R
6HR MIN TEMP:  68; 6HR MAX TEMP:  73; 6HR PCP: TRACE;

GREAT FALLS MT CLEAR     60  47  61 S8        29.87R
6HR MIN TEMP:  59; 6HR MAX TEMP:  71;

CHEYENNE WY    CLEAR     58  44  60 SW12      30.07R
6HR MIN TEMP:  57; 6HR MAX TEMP:  66;

SCOTTSBLUFF NE MOCLDY    60  59  96 E8        29.94R FOG
6HR MIN TEMP:  58; 6HR MAX TEMP:  66;

OMAHA NE       MOCLDY    68  61  78 SE9       30.04R
6HR MIN TEMP:  66; 6HR MAX TEMP:  72;

DES MOINES IA  FAIR      65  57  75 S9        30.08R
6HR MIN TEMP:  64; 6HR MAX TEMP:  68;

DAVENPORT IA   FAIR      63  58  83 SE6       30.12R
6HR MIN TEMP:  59; 6HR MAX TEMP:  64;

CHICAGO IL     FAIR      65  56  72 CALM      30.14R
6HR MIN TEMP:  60; 6HR MAX TEMP:  65;

EAU CLAIRE WI  FAIR      59  56  89 CALM      30.08S
6HR MIN TEMP:  53; 6HR MAX TEMP:  59;

LA CROSSE WI   FAIR      61  54  77 E8        30.09R
6HR MIN TEMP:  59; 6HR MAX TEMP:  62;

$$

  *****  SOME NATIONAL WEATHER *****

CITY           SKY/WX    TMP DP  RH WIND       PRES   REMARKS
LA GUARDIA NY  PTSUNNY   71  63  75 NE10      30.07R
6HR MIN TEMP:  70; 6HR MAX TEMP:  75;

RALEIGH NC     CLOUDY    76  68  76 SE5       30.07R
6HR MIN TEMP:  73; 6HR MAX TEMP:  76; 6HR PCP: TRACE;

ATLANTA GA     PTSUNNY   72  69  90 W8        30.09R
6HR MIN TEMP:  70; 6HR MAX TEMP:  73; 6HR PCP: TRACE;

NEW ORLEANS LA FAIR      77  73  87 S3        30.07R
6HR MIN TEMP:  74; 6HR MAX TEMP:  77;

OKLAHOMA CITY  CLOUDY    74  70  87 S9        29.98R
6HR MIN TEMP:  74; 6HR MAX TEMP:  77;

ALBUQUERQUE NM PTCLDY    67  55  65 N5        30.16R
6HR MIN TEMP:  67; 6HR MAX TEMP:  73;

SALT LAKE CITY LGT RAIN  70  62  76 SE13      29.99S
6HR MIN TEMP:  69; 6HR MAX TEMP:  74; 6HR PCP:  0.06;

LOS ANGELES CA CLOUDY    68  61  78 SW3       29.94S
6HR MIN TEMP:  67; 6HR MAX TEMP:  68;

BOISE ID       PTCLDY    67  50  54 SE5       29.91R
6HR MIN TEMP:  67; 6HR MAX TEMP:  74;




USA.gov is the U.S. government's official web portal to all federal, state and local government web resources and services.